Terminal Aerodrome Forecast
Issued by NWS Rapid City, SD

Home | Current Version | Previous Version | Graphics & Text | Print | Product List | Glossary On
Versions: 1 2 3 4 5 6 7 8 9 10 11 12 13 14 15 16 17 18 19
000
FTUS43 KUNR 031300 AAA
TAFRAP
TAF AMD
KRAP 031338Z 0314/0412 34028G40KT 3SM -SN BLSN SCT010 OVC030
     FM031800 34022G32KT P6SM OVC050
     FM040200 30011KT P6SM SCT250=

USA.gov is the U.S. government's official web portal to all federal, state and local government web resources and services.